WXM80 ListenWXM80 Stop

You find our weather info also at:

UK Metoffice

WeatherCloud

Weather Underground

Northeastern Weather Network

AWEKAS

Citizen Weather Observer Program (CWOP)

HAMweather, WeatherForYou, PWS Weather


Weather Underground History page Text

Daily Summary for March 6, 2018 Units:  English    Metric   Both
« Previous Day
Next Day »
Daily Weekly Monthly Yearly Custom
  High: Low: Average:
Temperature: 45.9 °F 32.5 °F 38.3 °F
Dew Point: 32.7 °F 28.2 °F 30.2 °F
Humidity: 85 % 53 % 73 %
Wind Speed: 9.3 mph 0.0 mph 3.2 mph
Wind Gust: 11.5 mph - -
Wind:- - ESE
Pressure: 29.82 in 29.71 in -
Precipitation: 0.00 in    
Historical Graphs
 
 
Tabular Data for March 6, 2018
Time Temperature Dew Point Pressure Wind Wind Speed Wind Gust Humidity Rainfall Rate (Hourly)
00:04 35.2 °F 29.0 °F 29.78 in North 3.8 mph 6.9 mph 78 % 0.00 in
00:09 35.1 °F 28.9 °F 29.78 in NNE 5.4 mph 6.9 mph 78 % 0.00 in
00:14 35.1 °F 28.9 °F 29.78 in NNE 5.2 mph 8.1 mph 78 % 0.00 in
00:19 35.1 °F 28.9 °F 29.78 in North 3.5 mph 6.9 mph 78 % 0.00 in
00:24 35.0 °F 28.8 °F 29.78 in North 4.8 mph 8.0 mph 78 % 0.00 in
00:29 35.1 °F 28.9 °F 29.78 in NNE 2.2 mph 5.8 mph 78 % 0.00 in
00:34 35.0 °F 29.1 °F 29.79 in North 3.6 mph 5.8 mph 79 % 0.00 in
00:39 34.9 °F 29.0 °F 29.79 in NNW 3.9 mph 6.0 mph 79 % 0.00 in
00:44 34.9 °F 28.7 °F 29.79 in NNW 5.0 mph 5.8 mph 78 % 0.00 in
00:49 34.8 °F 28.6 °F 29.79 in North 4.7 mph 7.0 mph 78 % 0.00 in
00:54 34.8 °F 29.0 °F 29.79 in NNE 3.4 mph 5.8 mph 79 % 0.00 in
00:59 34.8 °F 29.0 °F 29.79 in NNE 5.7 mph 6.0 mph 79 % 0.00 in
01:04 34.7 °F 28.9 °F 29.79 in North 2.5 mph 5.8 mph 79 % 0.00 in
01:10 34.7 °F 28.9 °F 29.79 in North 1.5 mph 5.8 mph 79 % 0.00 in
01:15 34.7 °F 28.9 °F 29.79 in NNW 1.4 mph 5.8 mph 79 % 0.00 in
01:20 34.6 °F 28.8 °F 29.79 in NNE 4.0 mph 5.8 mph 79 % 0.00 in
01:25 34.6 °F 29.1 °F 29.79 in NNE 3.2 mph 6.0 mph 80 % 0.00 in
01:30 34.5 °F 29.0 °F 29.79 in North 1.2 mph 5.0 mph 80 % 0.00 in
01:35 34.4 °F 28.9 °F 29.78 in North 2.0 mph 5.8 mph 80 % 0.00 in
01:40 34.4 °F 28.9 °F 29.79 in NNE 4.8 mph 8.1 mph 80 % 0.00 in
01:45 34.3 °F 28.8 °F 29.78 in NNE 2.2 mph 3.5 mph 80 % 0.00 in
01:50 34.3 °F 28.8 °F 29.78 in North 3.3 mph 4.6 mph 80 % 0.00 in
01:55 34.2 °F 28.7 °F 29.78 in North 3.4 mph 5.8 mph 80 % 0.00 in
02:00 34.3 °F 29.1 °F 29.78 in NNE 3.7 mph 5.8 mph 81 % 0.00 in
02:05 34.2 °F 29.0 °F 29.78 in NNW 4.3 mph 5.8 mph 81 % 0.00 in
02:10 34.2 °F 29.0 °F 29.78 in North 2.1 mph 3.5 mph 81 % 0.00 in
02:15 34.2 °F 29.0 °F 29.78 in NNW 3.3 mph 8.1 mph 81 % 0.00 in
02:20 34.2 °F 29.0 °F 29.78 in NNW 2.5 mph 5.8 mph 81 % 0.00 in
02:25 34.2 °F 29.0 °F 29.77 in North 2.7 mph 4.0 mph 81 % 0.00 in
02:30 34.1 °F 28.9 °F 29.77 in NNW 2.6 mph 7.0 mph 81 % 0.00 in
02:35 34.1 °F 28.9 °F 29.77 in North 4.0 mph 6.0 mph 81 % 0.00 in
02:41 34.0 °F 28.8 °F 29.77 in North 1.9 mph 5.8 mph 81 % 0.00 in
02:45 34.0 °F 29.1 °F 29.77 in NNE 2.9 mph 6.9 mph 82 % 0.00 in
02:51 33.9 °F 29.0 °F 29.77 in North 2.0 mph 7.0 mph 82 % 0.00 in
02:56 33.9 °F 29.0 °F 29.77 in North 2.0 mph 8.0 mph 82 % 0.00 in
03:01 33.9 °F 29.0 °F 29.77 in NNW 2.8 mph 6.9 mph 82 % 0.00 in
03:06 33.8 °F 28.9 °F 29.77 in NNW 3.1 mph 5.8 mph 82 % 0.00 in
03:11 33.8 °F 28.9 °F 29.77 in NNE 0.6 mph 5.8 mph 82 % 0.00 in
03:16 33.8 °F 28.9 °F 29.77 in North 2.4 mph 6.9 mph 82 % 0.00 in
03:21 33.7 °F 28.8 °F 29.77 in NNE 2.6 mph 5.8 mph 82 % 0.00 in
03:26 33.7 °F 28.8 °F 29.77 in NNE 6.1 mph 10.4 mph 82 % 0.00 in
03:31 33.7 °F 29.1 °F 29.77 in North 5.7 mph 8.1 mph 83 % 0.00 in
03:36 33.7 °F 28.8 °F 29.77 in NNE 5.4 mph 6.9 mph 82 % 0.00 in
03:41 33.7 °F 28.8 °F 29.77 in NNE 4.8 mph 6.9 mph 82 % 0.00 in
03:46 33.7 °F 28.8 °F 29.76 in North 4.0 mph 8.1 mph 82 % 0.00 in
03:51 33.7 °F 28.8 °F 29.76 in NNE 3.2 mph 5.8 mph 82 % 0.00 in
03:56 33.7 °F 29.1 °F 29.76 in North 6.0 mph 11.5 mph 83 % 0.00 in
04:01 33.7 °F 28.8 °F 29.76 in NNE 6.1 mph 9.2 mph 82 % 0.00 in
04:06 33.7 °F 29.1 °F 29.76 in NNE 5.6 mph 8.1 mph 83 % 0.00 in
04:11 33.7 °F 29.1 °F 29.76 in NNE 5.0 mph 8.0 mph 83 % 0.00 in
04:16 33.6 °F 29.0 °F 29.76 in NNE 5.8 mph 8.1 mph 83 % 0.00 in
04:21 33.6 °F 29.0 °F 29.77 in NNE 5.0 mph 6.9 mph 83 % 0.00 in
04:26 33.6 °F 29.0 °F 29.77 in North 2.8 mph 8.1 mph 83 % 0.00 in
04:31 33.5 °F 28.9 °F 29.77 in NNE 2.4 mph 4.6 mph 83 % 0.00 in
04:36 33.4 °F 28.8 °F 29.77 in NNE 5.5 mph 8.0 mph 83 % 0.00 in
04:41 33.5 °F 28.9 °F 29.77 in North 3.5 mph 6.9 mph 83 % 0.00 in
04:46 33.4 °F 28.8 °F 29.77 in NNE 2.4 mph 6.9 mph 83 % 0.00 in
04:51 33.4 °F 29.1 °F 29.78 in NNW 3.3 mph 6.9 mph 84 % 0.00 in
04:56 33.4 °F 29.1 °F 29.78 in North 2.2 mph 5.0 mph 84 % 0.00 in
05:01 33.4 °F 29.1 °F 29.78 in North 1.9 mph 4.0 mph 84 % 0.00 in
05:06 33.3 °F 29.0 °F 29.78 in NNE 3.5 mph 6.9 mph 84 % 0.00 in
05:11 33.3 °F 29.0 °F 29.78 in NNW 1.9 mph 4.6 mph 84 % 0.00 in
05:16 33.3 °F 29.0 °F 29.79 in NNW 1.4 mph 5.8 mph 84 % 0.00 in
05:22 33.2 °F 28.9 °F 29.79 in North 2.3 mph 8.1 mph 84 % 0.00 in
05:27 33.2 °F 28.9 °F 29.79 in NNW 3.3 mph 6.9 mph 84 % 0.00 in
05:32 33.1 °F 28.8 °F 29.79 in NNE 3.0 mph 6.0 mph 84 % 0.00 in
05:37 33.1 °F 28.8 °F 29.79 in NNW 3.5 mph 6.9 mph 84 % 0.00 in
05:42 33.0 °F 28.7 °F 29.79 in North 2.5 mph 5.0 mph 84 % 0.00 in
05:47 32.9 °F 28.6 °F 29.79 in NNE 3.9 mph 5.8 mph 84 % 0.00 in
05:52 32.9 °F 28.6 °F 29.79 in North 0.2 mph 3.5 mph 84 % 0.00 in
05:57 32.8 °F 28.5 °F 29.79 in North 2.0 mph 4.6 mph 84 % 0.00 in
06:02 32.7 °F 28.4 °F 29.79 in NE 1.0 mph 3.5 mph 84 % 0.00 in
06:07 32.7 °F 28.4 °F 29.80 in Calm   1.2 mph 84 % 0.00 in
06:12 32.6 °F 28.3 °F 29.80 in Calm   1.2 mph 84 % 0.00 in
06:17 32.6 °F 28.3 °F 29.80 in NNE 1.3 mph 3.0 mph 84 % 0.00 in
06:22 32.5 °F 28.2 °F 29.80 in NNE 0.7 mph 3.5 mph 84 % 0.00 in
06:27 32.5 °F 28.5 °F 29.80 in NNE 0.4 mph 2.3 mph 85 % 0.00 in
06:32 32.5 °F 28.5 °F 29.81 in NNE 1.6 mph 3.5 mph 85 % 0.00 in
06:37 32.5 °F 28.5 °F 29.81 in NNE 0.2 mph 2.3 mph 85 % 0.00 in
06:42 32.5 °F 28.5 °F 29.81 in NNE 2.9 mph 3.5 mph 85 % 0.00 in
06:47 32.7 °F 28.7 °F 29.81 in Calm   1.2 mph 85 % 0.00 in
06:52 32.9 °F 28.9 °F 29.81 in Calm   1.2 mph 85 % 0.00 in
06:57 33.1 °F 29.1 °F 29.81 in North 2.2 mph 5.8 mph 85 % 0.00 in
07:02 33.4 °F 29.4 °F 29.81 in NNE 1.1 mph 3.5 mph 85 % 0.00 in
07:07 33.7 °F 29.7 °F 29.81 in North 3.9 mph 8.1 mph 85 % 0.00 in
07:13 34.1 °F 29.8 °F 29.81 in North 2.2 mph 4.6 mph 84 % 0.00 in
07:18 34.6 °F 30.3 °F 29.81 in NNE 1.7 mph 4.6 mph 84 % 0.00 in
07:23 35.1 °F 30.5 °F 29.81 in North 2.6 mph 3.5 mph 83 % 0.00 in
07:28 35.6 °F 30.9 °F 29.81 in NNE 1.0 mph 3.5 mph 83 % 0.00 in
07:33 36.0 °F 30.7 °F 29.81 in NE 1.4 mph 4.6 mph 81 % 0.00 in
07:38 36.4 °F 31.1 °F 29.81 in NE 1.6 mph 2.3 mph 81 % 0.00 in
07:43 36.9 °F 31.3 °F 29.82 in NE 2.2 mph 3.5 mph 80 % 0.00 in
07:48 37.1 °F 31.2 °F 29.81 in NNE 2.4 mph 3.5 mph 79 % 0.00 in
07:53 37.3 °F 30.7 °F 29.81 in ENE 2.4 mph 3.5 mph 77 % 0.00 in
07:58 37.5 °F 30.9 °F 29.82 in ENE 2.7 mph 4.6 mph 77 % 0.00 in
08:03 37.7 °F 31.1 °F 29.82 in ENE 0.7 mph 2.3 mph 77 % 0.00 in
08:08 37.8 °F 30.9 °F 29.82 in NE 2.7 mph 3.5 mph 76 % 0.00 in
08:13 37.9 °F 30.4 °F 29.82 in NE 0.5 mph 2.3 mph 74 % 0.00 in
08:18 38.0 °F 30.8 °F 29.82 in NE 0.6 mph 3.5 mph 75 % 0.00 in
08:23 38.4 °F 31.5 °F 29.82 in NE 0.2 mph 2.3 mph 76 % 0.00 in
08:28 38.7 °F 31.5 °F 29.82 in ENE 2.4 mph 3.5 mph 75 % 0.00 in
08:33 38.7 °F 31.1 °F 29.82 in NE 2.9 mph 4.0 mph 74 % 0.00 in
08:39 38.7 °F 31.8 °F 29.82 in ENE 2.7 mph 4.6 mph 76 % 0.00 in
08:44 38.8 °F 31.9 °F 29.81 in ENE 1.6 mph 3.5 mph 76 % 0.00 in
08:49 38.8 °F 31.6 °F 29.81 in NNE 2.4 mph 5.0 mph 75 % 0.00 in
08:54 38.7 °F 31.5 °F 29.81 in NE 2.0 mph 4.0 mph 75 % 0.00 in
08:59 38.9 °F 31.6 °F 29.81 in ENE 2.7 mph 4.6 mph 75 % 0.00 in
09:04 39.1 °F 32.2 °F 29.81 in ENE 2.4 mph 7.0 mph 76 % 0.00 in
09:09 39.1 °F 31.8 °F 29.81 in ENE 3.4 mph 4.6 mph 75 % 0.00 in
09:14 39.2 °F 31.9 °F 29.81 in ENE 3.6 mph 6.9 mph 75 % 0.00 in
09:19 39.3 °F 31.4 °F 29.81 in NE 5.0 mph 8.1 mph 73 % 0.00 in
09:24 39.5 °F 31.6 °F 29.81 in ENE 4.5 mph 7.0 mph 73 % 0.00 in
09:29 39.9 °F 31.9 °F 29.81 in ENE 3.6 mph 6.9 mph 73 % 0.00 in
09:34 40.3 °F 32.0 °F 29.81 in East 4.2 mph 5.8 mph 72 % 0.00 in
09:39 40.7 °F 32.0 °F 29.81 in ENE 3.2 mph 4.6 mph 71 % 0.00 in
09:44 40.8 °F 31.4 °F 29.81 in ENE 4.8 mph 5.8 mph 69 % 0.00 in
09:49 40.6 °F 31.2 °F 29.81 in East 3.2 mph 5.8 mph 69 % 0.00 in
09:54 40.7 °F 31.3 °F 29.81 in ENE 4.9 mph 6.9 mph 69 % 0.00 in
09:59 41.1 °F 32.4 °F 29.82 in ENE 2.8 mph 4.6 mph 71 % 0.00 in
10:04 41.4 °F 32.3 °F 29.81 in ENE 5.4 mph 9.0 mph 70 % 0.00 in
10:10 41.3 °F 31.5 °F 29.81 in East 4.0 mph 9.2 mph 68 % 0.00 in
10:15 41.1 °F 31.3 °F 29.80 in ENE 5.8 mph 8.1 mph 68 % 0.00 in
10:20 40.9 °F 30.8 °F 29.80 in East 6.2 mph 9.2 mph 67 % 0.00 in
10:25 41.3 °F 31.9 °F 29.81 in East 5.5 mph 8.1 mph 69 % 0.00 in
10:30 41.4 °F 31.3 °F 29.80 in ENE 3.5 mph 10.4 mph 67 % 0.00 in
10:35 41.9 °F 32.1 °F 29.80 in NE 4.9 mph 8.1 mph 68 % 0.00 in
10:40 42.0 °F 31.8 °F 29.80 in East 5.2 mph 7.0 mph 67 % 0.00 in
10:45 42.1 °F 31.9 °F 29.81 in East 5.4 mph 8.1 mph 67 % 0.00 in
10:50 42.1 °F 32.3 °F 29.80 in ENE 5.6 mph 10.4 mph 68 % 0.00 in
10:55 42.5 °F 32.7 °F 29.80 in ENE 5.5 mph 8.1 mph 68 % 0.00 in
11:00 42.4 °F 31.8 °F 29.80 in ENE 4.4 mph 6.9 mph 66 % 0.00 in
11:05 42.3 °F 31.4 °F 29.80 in ENE 5.0 mph 7.0 mph 65 % 0.00 in
11:10 42.4 °F 31.8 °F 29.80 in ENE 3.6 mph 4.6 mph 66 % 0.00 in
11:15 42.4 °F 30.7 °F 29.80 in ENE 4.3 mph 6.9 mph 63 % 0.00 in
11:20 42.4 °F 31.5 °F 29.80 in ENE 4.9 mph 6.9 mph 65 % 0.00 in
11:25 42.3 °F 31.4 °F 29.80 in ENE 4.1 mph 6.9 mph 65 % 0.00 in
11:30 42.5 °F 31.9 °F 29.80 in NE 4.1 mph 6.9 mph 66 % 0.00 in
11:35 42.5 °F 31.9 °F 29.80 in ENE 2.6 mph 9.0 mph 66 % 0.00 in
11:40 42.7 °F 32.5 °F 29.80 in ENE 3.2 mph 5.8 mph 67 % 0.00 in
11:46 42.9 °F 31.9 °F 29.79 in ENE 3.4 mph 6.9 mph 65 % 0.00 in
11:51 43.1 °F 31.7 °F 29.79 in ENE 6.0 mph 8.0 mph 64 % 0.00 in
11:55 42.9 °F 31.9 °F 29.79 in ENE 5.0 mph 7.0 mph 65 % 0.00 in
12:01 42.9 °F 31.2 °F 29.78 in ENE 3.8 mph 8.1 mph 63 % 0.00 in
12:06 42.8 °F 31.1 °F 29.78 in ENE 6.5 mph 9.2 mph 63 % 0.00 in
12:11 42.4 °F 30.3 °F 29.78 in ENE 5.0 mph 9.2 mph 62 % 0.00 in
12:16 42.4 °F 31.8 °F 29.77 in ENE 4.1 mph 8.1 mph 66 % 0.00 in
12:21 43.0 °F 32.0 °F 29.77 in NE 3.6 mph 4.6 mph 65 % 0.00 in
12:26 43.4 °F 30.8 °F 29.77 in ENE 4.0 mph 5.8 mph 61 % 0.00 in
12:31 43.3 °F 29.9 °F 29.76 in ENE 3.8 mph 6.9 mph 59 % 0.00 in
12:36 43.5 °F 31.3 °F 29.76 in ENE 2.4 mph 5.0 mph 62 % 0.00 in
12:41 43.7 °F 29.9 °F 29.76 in ENE 5.0 mph 6.9 mph 58 % 0.00 in
12:46 43.8 °F 30.4 °F 29.76 in NE 2.7 mph 5.0 mph 59 % 0.00 in
12:51 44.7 °F 32.5 °F 29.75 in ENE 3.4 mph 5.0 mph 62 % 0.00 in
12:56 45.2 °F 31.3 °F 29.75 in East 3.0 mph 4.6 mph 58 % 0.00 in
13:01 45.4 °F 30.6 °F 29.75 in East 2.8 mph 4.6 mph 56 % 0.00 in
13:06 45.5 °F 29.3 °F 29.75 in ENE 3.2 mph 4.6 mph 53 % 0.00 in
13:11 45.8 °F 30.5 °F 29.75 in ENE 2.8 mph 4.6 mph 55 % 0.00 in
13:17 45.6 °F 29.9 °F 29.75 in NE 2.8 mph 4.6 mph 54 % 0.00 in
13:22 45.7 °F 29.5 °F 29.74 in NE 3.1 mph 4.6 mph 53 % 0.00 in
13:27 45.6 °F 29.4 °F 29.75 in ENE 2.8 mph 4.0 mph 53 % 0.00 in
13:32 45.8 °F 30.1 °F 29.74 in ENE 2.4 mph 4.0 mph 54 % 0.00 in
13:37 45.9 °F 29.7 °F 29.74 in ENE 2.3 mph 3.5 mph 53 % 0.00 in
13:42 45.6 °F 30.3 °F 29.74 in ENE 2.5 mph 4.6 mph 55 % 0.00 in
13:47 45.5 °F 29.3 °F 29.74 in ENE 2.0 mph 3.5 mph 53 % 0.00 in
13:52 45.4 °F 29.3 °F 29.74 in ENE 1.7 mph 3.5 mph 53 % 0.00 in
13:57 45.2 °F 29.1 °F 29.74 in NE 2.6 mph 4.0 mph 53 % 0.00 in
14:02 45.0 °F 29.8 °F 29.75 in ENE 1.5 mph 3.5 mph 55 % 0.00 in
14:07 44.7 °F 29.5 °F 29.74 in ENE 2.3 mph 3.5 mph 55 % 0.00 in
14:12 44.9 °F 30.6 °F 29.74 in ENE 0.7 mph 3.5 mph 57 % 0.00 in
14:17 45.2 °F 30.4 °F 29.74 in ENE 1.6 mph 3.5 mph 56 % 0.00 in
14:22 45.1 °F 29.9 °F 29.74 in ENE 2.5 mph 4.6 mph 55 % 0.00 in
14:27 44.7 °F 30.8 °F 29.73 in ENE 2.5 mph 3.5 mph 58 % 0.00 in
14:32 44.5 °F 32.3 °F 29.73 in NE 3.9 mph 6.9 mph 62 % 0.00 in
14:37 44.0 °F 30.6 °F 29.73 in ENE 2.6 mph 3.5 mph 59 % 0.00 in
14:42 43.7 °F 31.1 °F 29.73 in ENE 1.4 mph 3.5 mph 61 % 0.00 in
14:47 43.7 °F 31.5 °F 29.73 in ENE 2.6 mph 5.0 mph 62 % 0.00 in
14:53 43.6 °F 30.2 °F 29.73 in ENE 3.1 mph 4.6 mph 59 % 0.00 in
14:58 43.4 °F 30.0 °F 29.73 in ENE 2.0 mph 3.5 mph 59 % 0.00 in
15:03 43.2 °F 29.8 °F 29.73 in ENE 2.5 mph 4.6 mph 59 % 0.00 in
15:08 43.1 °F 29.7 °F 29.73 in ENE 1.2 mph 4.6 mph 59 % 0.00 in
15:13 42.9 °F 30.4 °F 29.73 in ENE 4.3 mph 8.1 mph 61 % 0.00 in
15:18 42.6 °F 29.3 °F 29.73 in ENE 1.6 mph 3.5 mph 59 % 0.00 in
15:23 42.3 °F 29.8 °F 29.73 in ENE 2.1 mph 3.5 mph 61 % 0.00 in
15:28 42.1 °F 30.4 °F 29.73 in ENE 3.8 mph 5.8 mph 63 % 0.00 in
15:33 42.0 °F 30.3 °F 29.73 in ENE 5.4 mph 7.0 mph 63 % 0.00 in
15:38 41.9 °F 30.6 °F 29.73 in NE 3.9 mph 6.9 mph 64 % 0.00 in
15:43 41.9 °F 30.6 °F 29.73 in East 1.2 mph 3.5 mph 64 % 0.00 in
15:48 42.1 °F 31.2 °F 29.73 in SSE 2.9 mph 5.0 mph 65 % 0.00 in
15:53 42.6 °F 31.3 °F 29.73 in SE 5.3 mph 8.0 mph 64 % 0.00 in
15:58 42.9 °F 30.8 °F 29.73 in SSE 0.8 mph 4.6 mph 62 % 0.00 in
16:04 43.1 °F 31.0 °F 29.73 in SSE 3.3 mph 6.9 mph 62 % 0.00 in
16:06 43.2 °F 31.4 °F 29.73 in SSE 2.4 mph 4.6 mph 63 % 0.00 in
16:12 43.3 °F 30.7 °F 29.73 in SSE 5.4 mph 9.2 mph 61 % 0.00 in
16:17 43.2 °F 30.6 °F 29.73 in South 5.9 mph 8.1 mph 61 % 0.00 in
16:22 43.0 °F 30.9 °F 29.73 in SSE 5.0 mph 6.9 mph 62 % 0.00 in
16:27 42.9 °F 30.8 °F 29.73 in SSE 3.7 mph 5.0 mph 62 % 0.00 in
16:32 42.8 °F 30.7 °F 29.73 in South 2.7 mph 6.0 mph 62 % 0.00 in
16:37 42.8 °F 30.7 °F 29.73 in South 3.2 mph 4.6 mph 62 % 0.00 in
16:38 42.8 °F 30.7 °F 29.73 in SSW 1.2 mph 4.0 mph 62 % 0.00 in
16:43 42.6 °F 30.5 °F 29.74 in South 5.2 mph 8.0 mph 62 % 0.00 in
16:48 42.4 °F 29.9 °F 29.74 in SE 7.5 mph 10.4 mph 61 % 0.00 in
16:53 42.0 °F 29.5 °F 29.74 in SSE 0.6 mph 3.0 mph 61 % 0.00 in
16:58 41.8 °F 29.7 °F 29.74 in SSE 5.4 mph 6.9 mph 62 % 0.00 in
17:03 41.5 °F 29.4 °F 29.74 in South 3.1 mph 8.1 mph 62 % 0.00 in
17:08 41.3 °F 29.6 °F 29.74 in South 2.2 mph 6.9 mph 63 % 0.00 in
17:13 41.0 °F 29.4 °F 29.75 in SSW 3.0 mph 5.8 mph 63 % 0.00 in
17:14 41.0 °F 29.4 °F 29.74 in SE 3.3 mph 5.8 mph 63 % 0.00 in
17:19 40.7 °F 29.5 °F 29.75 in SSE 4.1 mph 6.9 mph 64 % 0.00 in
17:24 40.6 °F 29.7 °F 29.75 in South 3.9 mph 4.6 mph 65 % 0.00 in
17:29 40.5 °F 29.7 °F 29.74 in SSE 3.3 mph 6.9 mph 65 % 0.00 in
17:33 40.4 °F 29.6 °F 29.74 in SSE 6.3 mph 11.5 mph 65 % 0.00 in
17:38 40.1 °F 29.3 °F 29.74 in South 5.0 mph 11.5 mph 65 % 0.00 in
17:43 40.0 °F 29.6 °F 29.74 in SE 3.5 mph 8.1 mph 66 % 0.00 in
17:48 39.9 °F 29.8 °F 29.74 in SSE 4.2 mph 7.0 mph 67 % 0.00 in
17:53 39.8 °F 30.1 °F 29.73 in SE 2.7 mph 6.9 mph 68 % 0.00 in
17:59 39.7 °F 30.0 °F 29.73 in SE 5.7 mph 11.5 mph 68 % 0.00 in
18:04 39.5 °F 29.8 °F 29.73 in ESE 3.6 mph 8.1 mph 68 % 0.00 in
18:09 39.3 °F 29.6 °F 29.73 in South 4.0 mph 10.4 mph 68 % 0.00 in
18:14 39.1 °F 29.8 °F 29.73 in SSE 7.0 mph 10.4 mph 69 % 0.00 in
18:19 38.9 °F 29.9 °F 29.73 in SSE 5.1 mph 8.1 mph 70 % 0.00 in
18:24 38.8 °F 30.2 °F 29.73 in SSE 3.2 mph 5.8 mph 71 % 0.00 in
18:29 38.7 °F 30.1 °F 29.73 in SSE 3.8 mph 10.0 mph 71 % 0.00 in
18:34 38.6 °F 30.0 °F 29.73 in SSE 2.2 mph 4.6 mph 71 % 0.00 in
18:40 38.6 °F 30.4 °F 29.74 in SE 1.5 mph 6.9 mph 72 % 0.00 in
18:45 38.5 °F 30.3 °F 29.74 in SE 4.9 mph 5.8 mph 72 % 0.00 in
18:50 38.4 °F 30.5 °F 29.74 in SSE 2.8 mph 6.9 mph 73 % 0.00 in
18:55 38.3 °F 30.4 °F 29.74 in SE 2.4 mph 9.2 mph 73 % 0.00 in
19:00 38.2 °F 30.6 °F 29.74 in ESE 4.1 mph 8.1 mph 74 % 0.00 in
19:05 38.1 °F 30.5 °F 29.74 in ESE 3.8 mph 6.9 mph 74 % 0.00 in
19:10 38.1 °F 30.9 °F 29.74 in SE 4.0 mph 8.1 mph 75 % 0.00 in
19:15 38.0 °F 30.8 °F 29.73 in SSE 7.7 mph 11.5 mph 75 % 0.00 in
19:20 38.0 °F 30.8 °F 29.74 in SSE 4.9 mph 10.0 mph 75 % 0.00 in
19:25 37.9 °F 30.7 °F 29.74 in SSE 1.2 mph 3.5 mph 75 % 0.00 in
19:30 37.9 °F 30.4 °F 29.74 in SE 9.3 mph 11.5 mph 74 % 0.00 in
19:35 37.9 °F 30.4 °F 29.74 in SE 2.8 mph 6.9 mph 74 % 0.00 in
19:40 37.8 °F 30.3 °F 29.74 in ESE 3.5 mph 8.1 mph 74 % 0.00 in
19:45 37.7 °F 30.5 °F 29.73 in SSE 6.8 mph 10.4 mph 75 % 0.00 in
19:50 37.6 °F 30.4 °F 29.75 in ESE 2.8 mph 5.0 mph 75 % 0.00 in
19:55 37.5 °F 30.3 °F 29.75 in SSE 5.9 mph 9.2 mph 75 % 0.00 in
20:00 37.4 °F 30.2 °F 29.75 in SE 4.1 mph 9.2 mph 75 % 0.00 in
20:05 37.4 °F 30.2 °F 29.75 in SE 0.8 mph 4.6 mph 75 % 0.00 in
20:07 37.4 °F 30.2 °F 29.74 in SE 0.7 mph 3.0 mph 75 % 0.00 in
20:12 37.3 °F 30.4 °F 29.74 in SE 5.3 mph 8.0 mph 76 % 0.00 in
20:17 37.2 °F 30.3 °F 29.75 in SE 3.0 mph 6.9 mph 76 % 0.00 in
20:22 37.2 °F 30.3 °F 29.75 in SSE 3.8 mph 8.1 mph 76 % 0.00 in
20:27 37.2 °F 30.3 °F 29.76 in SSE 4.0 mph 6.9 mph 76 % 0.00 in
20:32 37.3 °F 30.4 °F 29.76 in SE 4.5 mph 9.2 mph 76 % 0.00 in
20:37 37.4 °F 30.5 °F 29.75 in SE 3.5 mph 5.8 mph 76 % 0.00 in
20:42 37.4 °F 30.5 °F 29.75 in SSE 6.0 mph 9.2 mph 76 % 0.00 in
20:47 37.5 °F 30.6 °F 29.75 in SE 2.1 mph 9.2 mph 76 % 0.00 in
20:52 37.5 °F 30.6 °F 29.75 in SE 2.7 mph 5.0 mph 76 % 0.00 in
20:57 37.5 °F 30.6 °F 29.74 in East 1.4 mph 4.6 mph 76 % 0.00 in
21:02 37.5 °F 30.9 °F 29.74 in SE 2.1 mph 2.3 mph 77 % 0.00 in
21:07 37.6 °F 31.0 °F 29.75 in ESE 3.5 mph 6.9 mph 77 % 0.00 in
21:12 37.6 °F 31.0 °F 29.74 in East 3.5 mph 5.8 mph 77 % 0.00 in
21:17 37.5 °F 30.6 °F 29.74 in ESE 3.4 mph 9.2 mph 76 % 0.00 in
21:23 37.5 °F 30.9 °F 29.74 in East 1.1 mph 2.3 mph 77 % 0.00 in
21:28 37.5 °F 30.9 °F 29.75 in ESE 1.1 mph 3.5 mph 77 % 0.00 in
21:33 37.5 °F 30.6 °F 29.75 in SE 3.4 mph 6.9 mph 76 % 0.00 in
21:38 37.5 °F 30.6 °F 29.75 in ESE 0.4 mph 2.3 mph 76 % 0.00 in
21:43 37.5 °F 30.6 °F 29.75 in East 1.5 mph 3.5 mph 76 % 0.00 in
21:48 37.5 °F 31.3 °F 29.75 in East 1.1 mph 2.3 mph 78 % 0.00 in
21:53 37.5 °F 31.3 °F 29.75 in East 1.6 mph 5.0 mph 78 % 0.00 in
21:58 37.4 °F 31.2 °F 29.75 in East 1.6 mph 5.8 mph 78 % 0.00 in
22:03 37.4 °F 31.2 °F 29.75 in East 1.2 mph 4.6 mph 78 % 0.00 in
22:08 37.3 °F 31.1 °F 29.75 in ESE 2.3 mph 4.6 mph 78 % 0.00 in
22:13 37.3 °F 31.1 °F 29.75 in ESE 1.4 mph 4.6 mph 78 % 0.00 in
22:18 37.3 °F 30.7 °F 29.74 in East 3.6 mph 8.1 mph 77 % 0.00 in
22:23 37.2 °F 31.0 °F 29.74 in East 2.6 mph 4.6 mph 78 % 0.00 in
22:28 37.2 °F 30.7 °F 29.75 in East 0.7 mph 3.0 mph 77 % 0.00 in
22:33 37.2 °F 31.0 °F 29.75 in East 1.3 mph 2.3 mph 78 % 0.00 in
22:38 37.1 °F 30.9 °F 29.75 in Calm   2.3 mph 78 % 0.00 in
22:44 37.1 °F 30.6 °F 29.75 in ESE 3.5 mph 9.2 mph 77 % 0.00 in
22:49 37.1 °F 30.6 °F 29.75 in ESE 3.3 mph 9.2 mph 77 % 0.00 in
22:54 37.1 °F 30.6 °F 29.74 in East 1.3 mph 5.8 mph 77 % 0.00 in
22:59 37.1 °F 30.6 °F 29.75 in East 3.9 mph 8.1 mph 77 % 0.00 in
23:04 37.1 °F 30.6 °F 29.74 in East 3.6 mph 5.8 mph 77 % 0.00 in
23:09 37.0 °F 30.5 °F 29.74 in ESE 3.6 mph 6.9 mph 77 % 0.00 in
23:14 37.0 °F 30.5 °F 29.73 in East 2.4 mph 5.8 mph 77 % 0.00 in
23:19 37.0 °F 30.5 °F 29.73 in East 1.4 mph 5.0 mph 77 % 0.00 in
23:24 37.0 °F 30.5 °F 29.73 in East 1.5 mph 3.5 mph 77 % 0.00 in
23:29 37.0 °F 30.5 °F 29.73 in East 2.4 mph 5.8 mph 77 % 0.00 in
23:34 37.0 °F 30.5 °F 29.72 in ESE 5.7 mph 8.1 mph 77 % 0.00 in
23:39 37.0 °F 30.5 °F 29.72 in ESE 1.4 mph 5.8 mph 77 % 0.00 in
23:44 36.9 °F 30.4 °F 29.72 in East 3.2 mph 5.8 mph 77 % 0.00 in
23:49 37.0 °F 30.8 °F 29.72 in East 2.8 mph 6.9 mph 78 % 0.00 in
23:55 37.0 °F 30.8 °F 29.71 in East 3.1 mph 6.9 mph 78 % 0.00 in
Crab Meadow Weather
Compliments of Weather Underground - 3 mb

Script developed by  Jim McMurry - jmcmurry@mwt.net Adapted for the template by  Wim van der Kuil - Leuven-Template.eu

Recycling: Recycling 1 aluminum can saves enough energy to run your TV for 3 hours. Recycling aluminum cans saves 95% of the energy used to make cans from virgin ore.